Home > Weather > U.S.A. > Greeley > Past weeks

Flag for U.S.A. Weather past 2 weeks in Greeley, Colorado, U.S.A.

28 °F


Feels Like: 22 °F
Forecast: 14 / 41 °F
Wind: 6 mph from Northwest

Location: Greeley / Weld

Current Time: Dec 2, 2015 at 12:49:10 AM

Latest Report: Dec 1, 2015 at 11:55 PM

Visibility: 10 mi

Pressure: 30.10 "Hg (25.16 "Hg at 1424m altitude)

Humidity: 64%

Dew point: 18 °F

Location of GreeleyLocation

Historic Weather in Greeley — Graph


Greeley temperature yesterday

Maximum temperature yesterday: 39 °F (at 12:55 PM)
Minimum temperature yesterday: 12 °F (at 12:35 AM)
Average temperature yesterday: 27 °F

Past Weeks' High & Low Weather Summary

High63 °F (Nov 24, 2:35 PM)100% (Nov 23, 5:55 AM)30.47 "Hg (Nov 23, 5:55 AM)
Low9 °F (Nov 27, 6:35 AM)20% (Nov 24, 3:15 PM)29.45 "Hg (Nov 18, 4:35 AM)
Average28 °F71%30.03 "Hg
* Reported Nov 16 11:15 PM — Dec 1 11:35 PM, Greeley, Weather by CustomWeather, © 2015

Note: Actual official high and low records may vary slightly from our data, if they occured in-between our weather recording intervals... More about our weather records


Greeley weather history for previous 24 hours

Time TempWeatherWind HumidityBarometerVisibility
11:35 PM
Tue, Dec 1
28 °FOvercast.7 mph64%30.10 "Hg10 mi
11:15 PM32 °FOvercast.5 mph55%30.10 "Hg10 mi
10:55 PM30 °FOvercast.6 mph59%30.09 "Hg10 mi
10:35 PM34 °FPassing clouds.5 mph51%30.09 "HgN/A
10:15 PM34 °FOvercast.No wind51%30.08 "HgN/A
9:55 PM34 °FOvercast.7 mph56%30.07 "HgN/A
8:35 PM36 °FOvercast.8 mph52%30.05 "Hg10 mi
7:35 PM34 °FOvercast.6 mph60%30.04 "Hg10 mi
7:15 PM36 °FMostly cloudy.No wind52%30.04 "HgN/A
6:55 PM36 °FOvercast.No wind52%30.03 "HgN/A
5:35 PM37 °FOvercast.9 mph48%30.00 "Hg10 mi
5:15 PM37 °FOvercast.12 mph48%29.99 "Hg10 mi
4:35 PM37 °FOvercast.8 mph45%29.97 "Hg10 mi
3:55 PM39 °FOvercast.14 mph42%29.94 "Hg10 mi
2:55 PM39 °FOvercast.13 mph45%29.93 "Hg10 mi
2:35 PM39 °FOvercast.12 mph45%29.92 "Hg10 mi
1:55 PM39 °FPartly sunny.15 mph48%29.91 "Hg10 mi
1:35 PM39 °FPartly sunny.15 mph45%29.90 "Hg10 mi
1:15 PM39 °FPartly sunny.18 mph48%29.90 "Hg10 mi
12:55 PM39 °FScattered clouds.20 mph45%29.90 "Hg10 mi
12:35 PM37 °FOvercast.22 mph48%29.90 "Hg10 mi
12:15 PM37 °FOvercast.23 mph48%29.91 "Hg10 mi
11:55 AM37 °FOvercast.24 mph48%29.91 "Hg10 mi
11:35 AM37 °FOvercast.23 mph48%29.92 "Hg10 mi
11:15 AM36 °FPartly sunny.16 mph56%29.92 "Hg10 mi
10:55 AM34 °FScattered clouds.3 mph56%29.92 "Hg10 mi
10:35 AM34 °FPassing clouds.3 mph60%29.92 "HgN/A
10:15 AM30 °FPassing clouds.No wind69%29.91 "HgN/A
9:55 AM28 °FScattered clouds.3 mph69%29.91 "Hg10 mi
9:35 AM27 °FScattered clouds.3 mph74%29.90 "Hg10 mi
9:15 AM27 °FPassing clouds.5 mph74%29.90 "Hg10 mi
8:55 AM25 °FPassing clouds.6 mph74%29.89 "Hg10 mi
8:35 AM23 °FPassing clouds.5 mph80%29.89 "Hg10 mi
8:15 AM21 °FScattered clouds.3 mph80%29.88 "HgN/A
7:55 AM21 °FScattered clouds.No wind80%29.88 "HgN/A
7:35 AM21 °FScattered clouds.No wind80%29.87 "Hg10 mi
7:15 AM19 °FScattered clouds.No wind79%29.86 "Hg10 mi
6:55 AM19 °FPassing clouds.No wind79%29.86 "Hg10 mi
6:35 AM19 °FOvercast.No wind73%29.85 "Hg10 mi
6:15 AM18 °FPassing clouds.3 mph79%29.85 "Hg10 mi
5:55 AM18 °FClear.5 mph79%29.85 "Hg10 mi
5:35 AM18 °FClear.6 mph79%29.84 "Hg10 mi
5:15 AM18 °FClear.No wind79%29.84 "Hg10 mi
4:55 AM16 °FClear.5 mph86%29.83 "Hg10 mi
4:35 AM16 °FPassing clouds.5 mph86%29.83 "Hg10 mi
4:15 AM16 °FPassing clouds.No wind86%29.83 "Hg10 mi
3:55 AM16 °FPassing clouds.5 mph86%29.83 "Hg10 mi
3:35 AM14 °FPassing clouds.No wind92%29.83 "Hg10 mi
2:55 AM12 °FClear.5 mph92%29.84 "Hg10 mi
2:35 AM14 °FClear.3 mph85%29.84 "Hg10 mi
2:15 AM12 °FClear.No wind92%29.84 "Hg10 mi
1:55 AM12 °FClear.5 mph79%29.84 "Hg10 mi
12:55 AM12 °FClear.No wind85%29.84 "Hg10 mi
12:35 AM12 °FClear.3 mph92%29.85 "Hg10 mi
Weather by CustomWeather, © 2015

See weather overviewHow to use our weather pages